| time (UTC) | temp F | wind direction | speed knots | gust knots | rain 1hr in | rain 24hr in | rain mn in | humidity % | barometer mb |
| 20260831013053 | 72 | 36 | 0.0 | 0.0 | 0.00 | 0.42 | 0.42 | 100 | 1008.1 |
| 20260831011546 | 72 | 140 | 0.0 | 0.0 | 0.00 | 0.42 | 0.42 | 100 | 1008.0 |
| 20260831010050 | 72 | 320 | 0.0 | 0.0 | 0.00 | 0.42 | 0.42 | 100 | 1007.8 |
| 20260831004543 | 73 | 360 | 0.0 | 0.0 | 0.00 | 0.42 | 0.42 | 100 | 1007.9 |
| 20260831003041 | 73 | 355 | 0.0 | 0.0 | 0.00 | 0.42 | 0.42 | 100 | 1008.0 |
| 20260831001536 | 74 | 201 | 0.0 | 0.0 | 0.00 | 0.42 | 0.42 | 100 | 1007.7 |
| 20260831000033 | 74 | 235 | 0.0 | 0.0 | 0.00 | 0.42 | 0.42 | 100 | 1007.7 |
| 20260830234536 | 75 | 134 | 0.0 | 0.0 | 0.00 | 0.42 | 0.42 | 100 | 1007.8 |
| 20260830233023 | 75 | 267 | 0.0 | 0.0 | 0.00 | 0.42 | 0.42 | 3 | 1007.7 |
| 20260830231519 | 76 | 242 | 0.0 | 0.0 | 0.00 | 0.42 | 0.42 | 23 | 1007.7 |
| 20260830230014 | 76 | 118 | 0.0 | 0.0 | 0.00 | 0.42 | 0.42 | 38 | 1007.3 |
| 20260830224509 | 77 | 261 | 0.0 | 0.0 | 0.00 | 0.42 | 0.42 | 47 | 1007.3 |
| 20260830223005 | 77 | 286 | 0.0 | 0.0 | 0.00 | 0.42 | 0.42 | 49 | 1007.2 |
| 20260830221500 | 76 | 273 | 0.0 | 0.0 | 0.00 | 0.42 | 0.42 | 47 | 1007.1 |
| 20260830220058 | 77 | 355 | 0.0 | 0.0 | 0.00 | 0.42 | 0.42 | 54 | 1007.2 |
| 20260830214610 | 77 | 28 | 0.0 | 0.0 | 0.00 | 0.42 | 0.42 | 56 | 1007.2 |
| 20260830213047 | 78 | 254 | 0.0 | 0.0 | 0.00 | 0.42 | 0.42 | 63 | 1007.2 |
| 20260830211543 | 78 | 87 | 0.0 | 0.0 | 0.00 | 0.42 | 0.42 | 59 | 1007.4 |
| 20260830210039 | 79 | 246 | 0.0 | 0.0 | 0.00 | 0.42 | 0.42 | 60 | 1007.3 |
| 20260830204535 | 79 | 217 | 0.0 | 0.0 | 0.00 | 0.42 | 0.42 | 56 | 1007.1 |
| 20260830203030 | 78 | 355 | 0.0 | 0.0 | 0.00 | 0.42 | 0.42 | 56 | 1007.4 |
| 20260830201525 | 77 | 307 | 0.0 | 0.0 | 0.00 | 0.42 | 0.42 | 44 | 1007.8 |
| 20260830200039 | 76 | 309 | 0.0 | 0.0 | 0.00 | 0.42 | 0.42 | 38 | 1007.6 |
| 20260830194517 | 75 | 332 | 0.0 | 0.0 | 0.02 | 0.42 | 0.42 | 100 | 1007.7 |
| 20260830193012 | 73 | 181 | 0.0 | 0.0 | 0.02 | 0.42 | 0.42 | 100 | 1007.9 |
| 20260830191507 | 72 | 348 | 0.0 | 0.0 | 0.02 | 0.42 | 0.42 | 100 | 1008.0 |
| 20260830190013 | 72 | 313 | 0.0 | 0.0 | 0.02 | 0.42 | 0.42 | 100 | 1008.3 |
| 20260830184614 | 73 | 248 | 0.0 | 0.0 | 0.00 | 0.40 | 0.40 | 100 | 1008.3 |
| 20260830183103 | 75 | 60 | 0.0 | 0.0 | 0.00 | 0.40 | 0.40 | 28 | 1007.9 |
| 20260830181550 | 75 | 250 | 0.0 | 0.0 | 0.00 | 0.40 | 0.40 | 100 | 1008.0 |
| 20260830180045 | 74 | 23 | 0.0 | 0.0 | 0.00 | 0.40 | 0.40 | 13 | 1007.9 |
| 20260830174555 | 74 | 312 | 0.0 | 0.0 | 0.00 | 0.40 | 0.40 | 100 | 1007.9 |
| 20260830173037 | 72 | 271 | 0.0 | 0.0 | 0.00 | 0.40 | 0.40 | 100 | 1007.9 |
| 20260830171533 | 70 | 337 | 0.0 | 0.0 | 0.00 | 0.40 | 0.40 | 100 | 1007.9 |
| 20260830170028 | 69 | 167 | 0.0 | 0.0 | 0.00 | 0.40 | 0.40 | 100 | 1007.9 |
| 20260830164524 | 68 | 273 | 0.0 | 0.0 | 0.06 | 0.40 | 0.40 | 100 | 1007.9 |
| 20260830163021 | 68 | 257 | 0.0 | 0.0 | 0.26 | 0.40 | 0.40 | 100 | 1008.2 |
| 20260830161514 | 68 | 142 | 0.0 | 0.0 | 0.32 | 0.40 | 0.40 | 100 | 1008.0 |
| 20260830160010 | 68 | 109 | 0.0 | 0.0 | 0.32 | 0.40 | 0.40 | 100 | 1008.4 |
| 20260830154506 | 69 | 169 | 0.0 | 0.0 | 0.31 | 0.31 | 0.31 | 100 | 1008.6 |
| 20260830153001 | 70 | 172 | 0.0 | 0.0 | 0.13 | 0.13 | 0.13 | 100 | 1008.5 |
| 20260830151557 | 71 | 206 | 0.0 | 0.0 | 0.08 | 0.08 | 0.08 | 100 | 1008.6 |
| 20260830150056 | 73 | 249 | 0.0 | 0.0 | 0.08 | 0.08 | 0.08 | 25 | 1008.2 |
| 20260830144548 | 75 | 159 | 0.0 | 0.0 | 0.00 | 0.00 | 0.00 | 53 | 1007.2 |
| 20260830143045 | 74 | 214 | 0.0 | 0.0 | 0.00 | 0.00 | 0.00 | 48 | 1007.4 |
| 20260830141542 | 73 | 22 | 0.0 | 0.0 | 0.00 | 0.00 | 0.00 | 28 | 1007.3 |
| 20260830140034 | 72 | 76 | 0.0 | 0.0 | 0.00 | 0.00 | 0.00 | 24 | 1007.3 |
| 20260830134540 | 72 | 82 | 0.0 | 0.0 | 0.00 | 0.00 | 0.00 | 20 | 1007.1 |
| 20260830133025 | 71 | 82 | 0.0 | 0.0 | 0.00 | 0.00 | 0.00 | 11 | 1007.2 |
| 20260830131524 | 71 | 82 | 0.0 | 0.0 | 0.00 | 0.00 | 0.00 | 5 | 1007.2 |
| 20260830130017 | 70 | 65 | 0.0 | 0.0 | 0.00 | 0.00 | 0.00 | 5 | 1006.9 |
| 20260830124518 | 0 | 38 | 0.0 | 0.0 | 0.00 | 0.00 | 0.00 | 1007.3 | |
| 20260830123007 | 0 | 309 | 0.0 | 0.0 | 0.00 | 0.00 | 0.00 | 1007.2 | |
| 20260830121503 | 0 | 5 | 0.0 | 0.0 | 0.00 | 0.00 | 0.00 | 1007.2 | |
| 20260830114556 | 0 | 24 | 0.0 | 0.0 | 0.00 | 0.00 | 0.00 | 1007.3 | |
| 20260830113052 | 0 | 24 | 0.0 | 0.0 | 0.00 | 0.00 | 0.00 | 1007.1 | |
| 20260830111546 | 0 | 24 | 0.0 | 0.0 | 0.00 | 0.00 | 0.00 | 1007.3 | |
| 20260830110043 | 0 | 24 | 0.0 | 0.0 | 0.00 | 0.00 | 0.00 | 1007.3 | |
| 20260830104601 | 69 | 24 | 0.0 | 0.0 | 0.00 | 0.02 | 0.00 | 100 | 1007.4 |
| 20260830103036 | 68 | 42 | 0.0 | 0.0 | 0.00 | 0.02 | 0.00 | 100 | 1007.3 |
| 20260830101532 | 67 | 42 | 0.0 | 0.0 | 0.00 | 0.02 | 0.00 | 100 | 1007.4 |
| 20260830100028 | 66 | 42 | 0.0 | 0.0 | 0.00 | 0.02 | 0.00 | 100 | 1007.3 |
| 20260830094527 | 66 | 42 | 0.0 | 0.0 | 0.00 | 0.03 | 0.00 | 100 | 1007.7 |
| 20260830093030 | 66 | 42 | 0.0 | 0.0 | 0.00 | 0.03 | 0.00 | 100 | 1007.6 |
| 20260830091514 | 66 | 42 | 0.0 | 0.0 | 0.00 | 0.03 | 0.00 | 100 | 1007.5 |
| 20260830090009 | 66 | 42 | 0.0 | 0.0 | 0.00 | 0.03 | 0.00 | 100 | 1007.5 |
| 20260830084506 | 66 | 42 | 0.0 | 0.0 | 0.00 | 0.03 | 0.00 | 100 | 1007.6 |
| 20260830083107 | 66 | 42 | 0.0 | 0.0 | 0.00 | 0.03 | 0.00 | 100 | 1007.6 |
| 20260830081557 | 66 | 42 | 0.0 | 0.0 | 0.00 | 0.03 | 0.00 | 100 | 1007.5 |
| 20260830080051 | 66 | 42 | 0.0 | 0.0 | 0.00 | 0.03 | 0.00 | 100 | 1007.6 |
| 20260830074548 | 66 | 42 | 0.0 | 0.0 | 0.00 | 0.03 | 0.00 | 100 | 1007.6 |
| 20260830073044 | 66 | 35 | 0.0 | 0.0 | 0.00 | 0.03 | 0.00 | 100 | 1007.7 |
| 20260830071542 | 66 | 22 | 0.0 | 0.0 | 0.00 | 0.03 | 0.00 | 100 | 1007.7 |
| 20260830070035 | 66 | 22 | 0.0 | 0.0 | 0.00 | 0.03 | 0.00 | 100 | 1007.8 |
| 20260830064535 | 67 | 22 | 0.0 | 0.0 | 0.00 | 0.03 | 0.00 | 100 | 1007.9 |
| 20260830063028 | 67 | 22 | 0.0 | 0.0 | 0.00 | 0.03 | 0.00 | 100 | 1008.2 |
| 20260830061530 | 67 | 16 | 0.0 | 0.0 | 0.00 | 0.03 | 0.00 | 100 | 1008.3 |
| 20260830060025 | 67 | 16 | 0.0 | 0.0 | 0.00 | 0.03 | 0.00 | 100 | 1008.5 |
| 20260830054514 | 67 | 16 | 0.0 | 0.0 | 0.00 | 0.03 | 0.00 | 100 | 1008.6 |
| 20260830053022 | 67 | 16 | 0.0 | 0.0 | 0.00 | 0.03 | 0.00 | 100 | 1008.7 |
| 20260830051514 | 68 | 16 | 0.0 | 0.0 | 0.00 | 0.03 | 0.00 | 100 | 1008.5 |
| 20260830050001 | 68 | 16 | 0.0 | 0.0 | 0.00 | 0.03 | 0.00 | 100 | 1008.7 |
| 20260830044557 | 67 | 15 | 0.0 | 0.0 | 0.00 | 0.03 | 0.03 | 100 | 1008.7 |
| 20260830043051 | 67 | 15 | 0.0 | 0.0 | 0.00 | 0.03 | 0.03 | 100 | 1008.7 |
| 20260830041555 | 68 | 15 | 0.0 | 0.0 | 0.00 | 0.03 | 0.03 | 100 | 1008.7 |
| 20260830040046 | 68 | 15 | 0.0 | 0.0 | 0.00 | 0.03 | 0.03 | 100 | 1009.0 |
| 20260830034545 | 68 | 15 | 0.0 | 0.0 | 0.00 | 0.03 | 0.03 | 100 | 1008.9 |
| 20260830033037 | 68 | 16 | 0.0 | 0.0 | 0.00 | 0.03 | 0.03 | 100 | 1009.0 |
| 20260830031529 | 68 | 16 | 0.0 | 0.0 | 0.00 | 0.03 | 0.03 | 100 | 1008.9 |
| 20260830030026 | 68 | 16 | 0.0 | 0.0 | 0.00 | 0.03 | 0.03 | 100 | 1009.0 |
| 20260830024521 | 69 | 15 | 0.0 | 0.0 | 0.00 | 0.03 | 0.03 | 100 | 1008.9 |
| 20260830023019 | 69 | 344 | 0.0 | 0.0 | 0.00 | 0.03 | 0.03 | 100 | 1008.7 |
| 20260830021512 | 69 | 344 | 0.0 | 0.0 | 0.00 | 0.03 | 0.03 | 100 | 1008.6 |
| 20260830020007 | 70 | 344 | 0.0 | 0.0 | 0.00 | 0.03 | 0.03 | 100 | 1008.4 |
| 20260830014503 | 70 | 338 | 0.0 | 0.0 | 0.00 | 0.03 | 0.03 | 100 | 1008.1 |